Location: Berg
(48.4333°N, 13.9167°E)
Time: 05:11:54
(UTC+00:00)

SPOT 3 Rocket - Pass Details

Date: 18 September 2020
Orbit: 780 x 794 km, 98.7° (Epoch: 29 October)

Event Time Altitude Azimuth Distance (km) Brightness Sun altitude
Exits shadow 18:22:56 18° 114° (ESE) 1,853 4.8 -12.7°
Maximum altitude 18:25:59 32° 63° (ENE) 1,323 4.4 -13.2°
Drops below altitude 10° 18:30:30 10° 2° (N) 2,346 6.2 -13.9°
Sets 18:33:02 0° 353° (N) 3,279 7.1 -14.3°
